Location: Cantaing
(50.1487°N, 3.1675°E)
Time: 14:53:01
(UTC+00:00)

Cosmos 2084 - Pass Details

Date: 14 January 2026
Orbit: 536 x 564 km, 62.8° (Epoch: 18 February)

Event Time Altitude Azimuth Distance (km) Brightness Sun altitude
Exits shadow 06:22:58 15° 263° (W) 1,536 5.0 -12.1°
Maximum altitude 06:25:58 37° 325° (NW) 883 4.0 -11.6°
Drops below altitude 10° 06:29:50 10° 34° (NE) 1,841 6.2 -11.1°
Sets 06:32:11 0° 43° (NE) 2,733 7.2 -10.7°
